Weather History for West Plains, MO

Change the Weather History Date:

Saturday, September 14, 2013

  Actual Average Record
Temperature  
Mean Temperature 61 °F 70 °F  
Max Temperature 75 °F 81 °F 99 °F (1954)
Min Temperature 46 °F 58 °F 44 °F (1999)
Degree Days  
Heating Degree Days 4 1  
Month to date heating degree days 4 2  
Since 1 July heating degree days 8 3  
Cooling Degree Days 0 5  
Month to date cooling degree days 138 105  
Year to date cooling degree days 980 1277  
Growing Degree Days 10 (Base 50)    
Moisture  
Dew Point 47 °F    
Average Humidity 63    
Maximum Humidity 93    
Minimum Humidity 33    
Precipitation  
Precipitation 0.00 in 0.13 in 1.95 in (2008)
Month to date precipitation 0.08 2.05  
Year to date precipitation 42.31 32.12  
Sea Level Pressure  
Sea Level Pressure 30.09 in    
Wind  
Wind Speed 4 mph (East)    
Max Wind Speed 10 mph    
Max Gust Speed 15 mph    
Visibility 10 miles    
Events      
T = Trace of Precipitation, MM = Missing Value Source: NWS Daily Summary

Daily Weather History Graph

Daily Weather History Graph

Search for Another Location

Airport:

Trip Planner

Search our weather history database for the weather conditions in past years. The results will help you decide how hot, cold, wet, or windy it might be!

Date:

Astronomy

Sep. 14, 2013 Rise Set
Actual Time 6:49 AM CDT 7:16 PM CDT
Civil Twilight 6:23 AM CDT 7:42 PM CDT
Nautical Twilight 5:52 AM CDT 8:12 PM CDT
Astronomical Twilight 5:21 AM CDT 8:43 PM CDT
Moon 3:52 PM CDT (9/14) 1:27 AM CDT (9/14)
Length of Visible Light 13h 19m
Length of Day
12h 27m
Waxing Gibbous, 72% of the Moon is Illuminated
Sep 14
Waxing Gibbous
Sep 19
Full
Sep 26
Last Quarter
Oct 4
New
Oct 11
First Quarter

Hourly Weather History & Observations

Time (CDT) Temp. Dew Point Humidity Pressure Visibility Wind Dir Wind Speed Gust Speed Precip Events Conditions
12:53 AM 57.0 °F 51.1 °F 81% 30.08 in 10.0 mi NE 3.5 mph - N/A   Clear
1:53 AM 55.0 °F 48.9 °F 80% 30.08 in 10.0 mi NNE 4.6 mph - N/A   Clear
2:53 AM 52.0 °F 48.0 °F 86% 30.07 in 10.0 mi Calm Calm - N/A   Clear
3:53 AM 52.0 °F 48.0 °F 86% 30.07 in 10.0 mi Calm Calm - N/A   Clear
4:53 AM 51.1 °F 46.0 °F 83% 30.08 in 10.0 mi NNE 4.6 mph - N/A   Clear
5:53 AM 46.9 °F 44.1 °F 90% 30.09 in 10.0 mi Calm Calm - N/A   Clear
6:53 AM 48.0 °F 44.1 °F 86% 30.12 in 10.0 mi Calm Calm - N/A   Clear
7:53 AM 54.0 °F 48.0 °F 80% 30.12 in 10.0 mi NE 3.5 mph - N/A   Clear
8:53 AM 59.0 °F 50.0 °F 72% 30.14 in 10.0 mi East 6.9 mph - N/A   Clear
9:53 AM 64.0 °F 48.9 °F 58% 30.15 in 10.0 mi SE 4.6 mph - N/A   Clear
10:53 AM 66.0 °F 48.0 °F 52% 30.15 in 10.0 mi Variable 5.8 mph - N/A   Clear
11:53 AM 68.0 °F 45.0 °F 43% 30.14 in 10.0 mi Variable 4.6 mph - N/A   Clear
12:53 PM 72.0 °F 46.0 °F 40% 30.11 in 10.0 mi NE 6.9 mph - N/A   Clear
1:53 PM 72.0 °F 44.1 °F 37% 30.09 in 10.0 mi Variable 3.5 mph - N/A   Clear
2:53 PM 75.0 °F 44.1 °F 33% 30.07 in 10.0 mi ESE 6.9 mph - N/A   Clear
3:53 PM 73.0 °F 43.0 °F 34% 30.05 in 10.0 mi Variable 3.5 mph - N/A   Clear
4:53 PM 75.0 °F 44.1 °F 33% 30.04 in 10.0 mi Variable 4.6 mph - N/A   Clear
5:53 PM 73.0 °F 42.1 °F 33% 30.05 in 10.0 mi ESE 6.9 mph - N/A   Clear
6:53 PM 70.0 °F 45.0 °F 41% 30.05 in 10.0 mi SE 3.5 mph - N/A   Clear
7:53 PM 63.0 °F 48.0 °F 58% 30.06 in 10.0 mi ESE 3.5 mph - N/A   Clear
8:53 PM 62.1 °F 48.9 °F 62% 30.06 in 10.0 mi SE 3.5 mph - N/A   Clear
9:53 PM 60.1 °F 48.0 °F 64% 30.06 in 10.0 mi SSE 4.6 mph - N/A   Clear
10:53 PM 57.0 °F 48.0 °F 72% 30.07 in 10.0 mi Calm Calm - N/A   Clear
11:53 PM 55.9 °F 48.0 °F 75% 30.06 in 10.0 mi SSE 3.5 mph - N/A   Clear